COSMOS 1275 DEB, 42175

Orbit data source: Space-Track

COSMOS 1275 DEB, 42175 is space debris in LEO originally from a launch on Thu, 04 Jun 1981 UTC launched from the Plesetsk Missile And Space Complex (PKMTR). Debris objects in space refer to the collection of defunct objects orbiting the Earth. Examples of debris include non-operational satellites, rocket bodies, and fragments generated from explosions, collisions, or faulty payload assembly.

Loading next visibility...
Identifier
42175, 1981-053SP
Orbit
LEO
Country
Flag of CISCIS
Related business
Manufacturer
Unknown
Mission
Spacecraft
Bus & Motor
Unknown
Mass
Unknown
Launch date (UTC)
1981-06-04 (45 years ago)
Launch vehicle
Unknown
Launch site
Plesetsk Missile And Space Complex (PKMTR)
Object type
Payload
Rocket body
Debris
Shape & HBR
Unknown shape, 0.1 m
Radar Cross Section
Small (<0.1 m²)

Expand to show TLE details & history
Last TLE update: 1 week ago

TLE from 1 week ago
0 COSMOS 1275 DEB
1 42175U 81053SP  26086.21004811  .00000158  00000-0  21172-3 0  9995
2 42175  83.0272 242.4307 0140447  83.5157  95.2538 13.49725196608243
Epoch: 2026-03-27T05:02Z
TLE epoch observation values (Epoch: 2026-03-27T05:02:28.156Z)
Latitude
-0.48275°
Longitude
162.22421°
Altitude
1,087.24 km
Speed
7.303 km/s
True Right ascension
04h 09m 57s
True Declination
0° 28' 48"
Sunlit
Object was in daylight at epoch
Visualization orbit readout
Latitude
Unknown
Longitude
Unknown
Altitude
Unknown
Speed
Unknown
Apparent Right ascension
Unknown
Apparent Declination
Unknown
Sunlit
N/A
Visualization observer readout
Local Sidereal Time
23:28:01
Azimuth
Unknown
Elevation
Unknown
Doppler factor
Unknown
Orbital elements
Apogee altitude
1,175.063 km
Perigee altitude
965.837 km
Semi-major axis
7,448.587 km
Eccentricity
0.01404
Inclination
83.0272°
RAAN
242.4307°
Arg. of periapsis
83.5157°
True anomaly
96.85366°
Mean anomaly
95.2538°
Eccentric anomaly
96.05401°
Mean motion
3.37623 °/min
Orbital period
106.63 mins
BSTAR
0.00021172
Loading maneuver chart data...
Computing Atmospheric mass density...

Documentation

Showing up to 5 results
|